Estación de Trinidad
Ultimos registro cada 15 minutos 42
| N° | Estación | Fecha / Hora | Temperatura | Humedad | Lluvia | Velocidad | Dirección | Radiación | Presion |
| 42 | Trinidad | 07-05-2026 10:15 | 12 | 74 | 0 | 0,4 | 178 | 462 | 1028,7 |
| 41 | Trinidad | 07-05-2026 10:00 | 11,4 | 76 | 0 | 0,9 | 158 | 424 | 1028,9 |
| 40 | Trinidad | 07-05-2026 09:45 | 10,9 | 76 | 0 | 1,8 | 158 | 383 | 1028,8 |
| 39 | Trinidad | 07-05-2026 09:30 | 10,4 | 77 | 0 | 0,9 | 147 | 343 | 1028,9 |
| 38 | Trinidad | 07-05-2026 09:15 | 10,2 | 78 | 0 | 1,3 | 166 | 63 | 1028,7 |
| 37 | Trinidad | 07-05-2026 09:00 | 9,9 | 82 | 0 | 0 | 154 | 39 | 1028,4 |
| 36 | Trinidad | 07-05-2026 08:45 | 9,3 | 83 | 0 | 0,9 | 156 | 127 | 1028,5 |
| 35 | Trinidad | 07-05-2026 08:30 | 8,4 | 86 | 0 | 0 | 166 | 144 | 1028,3 |
| 34 | Trinidad | 07-05-2026 08:15 | 7,6 | 88 | 0 | 0 | 166 | 93 | 1028 |
| 33 | Trinidad | 07-05-2026 08:00 | 6,9 | 88 | 0 | 0 | 166 | 23 | 1028,1 |
| 32 | Trinidad | 07-05-2026 07:45 | 7 | 87 | 0 | 0 | 166 | 18 | 1027,7 |
| 31 | Trinidad | 07-05-2026 07:30 | 7,3 | 86 | 0 | 0 | 166 | 5 | 1027,5 |
| 30 | Trinidad | 07-05-2026 07:15 | 7,9 | 84 | 0 | 0 | 166 | 0 | 1027,4 |
| 29 | Trinidad | 07-05-2026 07:00 | 8,1 | 85 | 0 | 0 | 166 | 0 | 1027,6 |
| 28 | Trinidad | 07-05-2026 06:45 | 8,3 | 85 | 0 | 0 | 166 | 0 | 1027,4 |
| 27 | Trinidad | 07-05-2026 06:30 | 8,4 | 84 | 0 | 0 | 166 | 0 | 1027,3 |
| 26 | Trinidad | 07-05-2026 06:15 | 8,8 | 84 | 0 | 0,4 | 166 | 0 | 1027,2 |
| 25 | Trinidad | 07-05-2026 06:00 | 9,1 | 83 | 0 | 0 | 166 | 0 | 1027 |
| 24 | Trinidad | 07-05-2026 05:45 | 9,3 | 83 | 0 | 0 | 166 | 0 | 1026,8 |
| 23 | Trinidad | 07-05-2026 05:30 | 9,4 | 83 | 0 | 0 | 166 | 0 | 1026,8 |
| 22 | Trinidad | 07-05-2026 05:15 | 9,6 | 84 | 0 | 0 | 166 | 0 | 1026,5 |
| 21 | Trinidad | 07-05-2026 05:00 | 9,6 | 84 | 0 | 0 | 166 | 0 | 1026,2 |
| 20 | Trinidad | 07-05-2026 04:45 | 9,9 | 84 | 0 | 0 | 164 | 0 | 1025,9 |
| 19 | Trinidad | 07-05-2026 04:30 | 10,1 | 84 | 0 | 0 | 167 | 0 | 1025,7 |
| 18 | Trinidad | 07-05-2026 04:15 | 10,2 | 84 | 0 | 0 | 168 | 0 | 1025,8 |
| 17 | Trinidad | 07-05-2026 04:00 | 10,1 | 84 | 0 | 0 | 166 | 0 | 1025,7 |
| 16 | Trinidad | 07-05-2026 03:45 | 10,2 | 84 | 0 | 0 | 166 | 0 | 1025,5 |
| 15 | Trinidad | 07-05-2026 03:30 | 10,2 | 84 | 0 | 0 | 166 | 0 | 1025,6 |
| 14 | Trinidad | 07-05-2026 03:15 | 10,2 | 84 | 0 | 0 | 166 | 0 | 1025,8 |
| 13 | Trinidad | 07-05-2026 03:00 | 10,2 | 83 | 0 | 0 | 166 | 0 | 1025,5 |
| 12 | Trinidad | 07-05-2026 02:45 | 10,2 | 84 | 0 | 0 | 167 | 0 | 1025,3 |
| 11 | Trinidad | 07-05-2026 02:30 | 10,2 | 84 | 0 | 0 | 167 | 0 | 1025,6 |
| 10 | Trinidad | 07-05-2026 02:15 | 10,3 | 84 | 0 | 0 | 167 | 0 | 1025,5 |
| 9 | Trinidad | 07-05-2026 02:00 | 10,3 | 84 | 0 | 0,4 | 167 | 0 | 1025,3 |
| 8 | Trinidad | 07-05-2026 01:45 | 10,3 | 84 | 0 | 0,4 | 167 | 0 | 1025,1 |
| 7 | Trinidad | 07-05-2026 01:30 | 10,2 | 84 | 0 | 0 | 167 | 0 | 1025 |
| 6 | Trinidad | 07-05-2026 01:15 | 10,2 | 84 | 0 | 0,4 | 167 | 0 | 1024,5 |
| 5 | Trinidad | 07-05-2026 01:00 | 9,9 | 86 | 0 | 0 | 167 | 0 | 1024,5 |
| 4 | Trinidad | 07-05-2026 00:45 | 10,2 | 85 | 0 | 0 | 167 | 0 | 1024,7 |
| 3 | Trinidad | 07-05-2026 00:30 | 10,6 | 83 | 0 | 0 | 167 | 0 | 1024,7 |
| 2 | Trinidad | 07-05-2026 00:15 | 10,8 | 83 | 0 | 0 | 167 | 0 | 1024,5 |
| 1 | Trinidad | 07-05-2026 00:00 | 10,9 | 82 | 0 | 0 | 167 | 0 | 1024,3 |